Weather reports worldwide

Advertisment
Noervenich/Flugplatz, Germany (10502): temperature & dewpoint: 10.07.2018 18:00:00 - 16.07.2018 18:00:00 (CEST)Noervenich/Flugplatz, Germany (10502): wind speed & gusts: 10.07.2018 18:00:00 - 16.07.2018 18:00:00 (CEST)Noervenich/Flugplatz, Germany (10502): wind direction: 10.07.2018 18:00:00 - 16.07.2018 18:00:00 (CEST)Noervenich/Flugplatz, Germany (10502): reduced air pressure: 10.07.2018 18:00:00 - 16.07.2018 18:00:00 (CEST)Noervenich/Flugplatz, Germany (10502): visibility: 10.07.2018 18:00:00 - 16.07.2018 18:00:00 (CEST)
Date & Time tt [°C] td [°C] ff [km/h] ff [kn] fx [km/h] fx [kn] dd ppp [hPa] vv [km]
16.07.2018 18:00:00 28,9 4,7 7 4 - - NNW 1010,9 50
16.07.2018 17:00:00 29,2 4,7 14 8 - - NNW 1011,1 50
16.07.2018 16:00:00 29,3 4,8 14 8 - - NNW 1011,3 50
16.07.2018 15:00:00 28,9 6,2 14 8 - - NNW 1011,9 50
16.07.2018 14:00:00 28,0 6,0 11 6 - - N 1012,5 50
16.07.2018 13:00:00 26,9 9,9 11 6 - - W 1012,8 50
16.07.2018 12:00:00 25,7 9,9 7 4 - - NE 1013,2 50
16.07.2018 11:00:00 23,8 10,7 7 4 - - NNE 1013,4 50
16.07.2018 10:00:00 21,9 9,8 4 2 - - NNE 1013,7 50
16.07.2018 09:00:00 19,4 10,3 4 2 - - ENE 1014,0 50
16.07.2018 08:00:00 16,8 9,3 4 2 - - WNW 1014,1 50
16.07.2018 07:00:00 13,8 8,7 4 2 - - WNW 1014,4 50
16.07.2018 06:00:00 12,7 8,6 0 0 - - N 1014,5 50
16.07.2018 05:00:00 13,5 8,7 4 2 - - WSW 1014,4 40
16.07.2018 04:00:00 15,0 8,9 7 4 - - WSW 1014,6 40
16.07.2018 03:00:00 16,5 8,8 7 4 - - W 1014,7 40
16.07.2018 02:00:00 17,5 8,5 4 2 - - NE 1015,0 40
16.07.2018 01:00:00 19,3 8,1 4 2 - - NE 1014,9 40
16.07.2018 00:00:00 19,4 7,7 4 2 - - N 1014,9 45
15.07.2018 23:00:00 19,9 8,4 4 2 - - NNE 1014,9 45
15.07.2018 22:00:00 21,6 7,6 7 4 - - NNE 1014,3 45
15.07.2018 21:00:00 25,2 7,5 14 8 - - NE 1013,7 45
15.07.2018 20:00:00 26,5 7,3 18 10 - - NE 1013,6 45
15.07.2018 19:00:00 27,7 6,6 14 8 - - NE 1013,6 45
15.07.2018 18:00:00 27,9 6,3 14 8 - - NE 1013,8 45
15.07.2018 17:00:00 28,1 6,9 14 8 - - N 1014,1 45
15.07.2018 16:00:00 27,6 7,8 14 8 - - NE 1014,5 45
15.07.2018 15:00:00 27,9 8,8 14 8 - - NE 1014,9 45
15.07.2018 14:00:00 26,8 8,9 11 6 - - E 1015,9 45
15.07.2018 13:00:00 26,0 10,1 11 6 - - E 1016,5 13
15.07.2018 12:00:00 24,6 10,8 11 6 - - ENE 1016,9 10
15.07.2018 11:00:00 23,1 11,7 11 6 - - NE 1017,2 12
15.07.2018 10:00:00 21,4 12,5 4 2 - - W 1017,5 10
15.07.2018 09:00:00 19,6 12,0 4 2 - - N 1017,7 11
15.07.2018 08:00:00 16,9 11,0 4 2 - - N 1017,6 13
15.07.2018 07:00:00 13,8 10,4 4 2 - - SW 1017,7 10
15.07.2018 06:00:00 12,9 10,2 0 0 - - N 1017,9 10
15.07.2018 05:00:00 14,1 10,4 7 4 - - W 1018,0 11
15.07.2018 04:00:00 14,6 10,3 4 2 - - W 1018,1 13
15.07.2018 03:00:00 15,5 10,4 7 4 - - W 1018,3 14
15.07.2018 02:00:00 16,3 10,3 4 2 - - WNW 1018,4 18
15.07.2018 01:00:00 17,1 10,2 4 2 - - NW 1018,4 15
15.07.2018 00:00:00 18,3 10,1 4 2 - - N 1018,3 15
14.07.2018 23:00:00 20,6 9,9 7 4 - - NNW 1018,2 17
14.07.2018 22:00:00 21,9 9,5 7 4 - - N 1017,8 30
14.07.2018 21:00:00 24,2 9,5 14 8 - - NNE 1017,3 30
14.07.2018 20:00:00 25,7 9,4 14 8 - - N 1017,1 30
14.07.2018 19:00:00 26,5 10,2 11 6 - - NNE 1017,2 30
14.07.2018 18:00:00 26,6 10,5 14 8 - - N 1017,5 30
14.07.2018 17:00:00 26,8 11,3 14 8 - - N 1017,5 25
14.07.2018 16:00:00 27,0 12,1 14 8 - - N 1018,0 25
14.07.2018 15:00:00 26,4 12,0 14 8 - - NNW 1018,4 25
14.07.2018 14:00:00 25,9 12,6 7 4 - - N 1018,9 20
14.07.2018 13:00:00 24,3 12,7 11 6 - - NNE 1019,5 11
14.07.2018 12:00:00 23,7 13,8 11 6 - - N 1020,0 9
14.07.2018 11:00:00 22,2 13,7 14 8 - - NNW 1020,3 11
14.07.2018 10:00:00 20,4 13,7 7 4 - - NW 1020,5 11
14.07.2018 09:00:00 18,3 13,4 7 4 - - WNW 1020,5 13
14.07.2018 08:00:00 16,8 13,3 7 4 - - WNW 1020,3 13
14.07.2018 07:00:00 15,0 12,4 11 6 - - W 1020,3 10
14.07.2018 06:00:00 14,7 12,2 11 6 - - W 1020,1 10
14.07.2018 05:00:00 15,3 12,2 11 6 - - W 1020,1 11
14.07.2018 04:00:00 15,9 12,1 11 6 - - W 1019,8 11
14.07.2018 03:00:00 16,7 11,8 11 6 - - W 1019,9 14
14.07.2018 02:00:00 17,7 11,9 7 4 - - W 1019,8 15
14.07.2018 01:00:00 19,3 11,6 7 4 - - NW 1019,8 16
14.07.2018 00:00:00 20,2 11,1 7 4 - - NW 1019,7 22
13.07.2018 23:00:00 19,6 10,7 7 4 - - W 1019,6 16
13.07.2018 22:00:00 21,4 10,8 7 4 - - NNW 1019,2 30
13.07.2018 21:00:00 24,2 10,2 7 4 - - N 1018,7 30
13.07.2018 20:00:00 25,2 9,9 11 6 - - N 1018,5 30
13.07.2018 19:00:00 26,2 9,6 11 6 - - NNW 1018,8 30
13.07.2018 18:00:00 26,3 8,9 11 6 - - N 1019,0 30
13.07.2018 17:00:00 26,3 8,7 11 6 - - N 1019,3 30
13.07.2018 16:00:00 25,8 9,3 11 6 - - N 1019,7 25
13.07.2018 15:00:00 25,7 10,3 11 6 - - NNW 1019,8 25
13.07.2018 14:00:00 24,6 11,2 7 4 - - NNW 1020,2 25
13.07.2018 13:00:00 24,0 12,5 11 6 - - NNE 1020,7 20
13.07.2018 12:00:00 22,4 13,1 7 4 - - N 1020,9 20
13.07.2018 11:00:00 21,2 14,2 7 4 - - NNW 1021,0 20
13.07.2018 10:00:00 18,6 13,3 7 4 - - N 1021,2 20
13.07.2018 09:00:00 17,2 13,0 7 4 - - NNW 1021,2 20
13.07.2018 08:00:00 15,9 12,5 7 4 - - NW 1021,0 20
13.07.2018 07:00:00 14,1 11,5 7 4 - - W 1021,0 20
13.07.2018 06:00:00 13,7 11,4 11 6 - - W 1021,1 30
13.07.2018 05:00:00 14,1 11,5 11 6 - - W 1020,8 30
13.07.2018 04:00:00 15,3 11,9 7 4 - - NW 1020,6 30
13.07.2018 03:00:00 16,7 11,9 11 6 - - NW 1020,3 30
13.07.2018 02:00:00 16,3 12,3 11 6 - - NW 1020,0 30
13.07.2018 01:00:00 17,1 12,2 7 4 - - WNW 1020,0 30
13.07.2018 00:00:00 17,7 12,6 11 6 - - W 1019,7 25
12.07.2018 23:00:00 19,4 12,5 4 2 - - N 1019,3 25
12.07.2018 22:00:00 21,8 12,3 7 4 - - NNW 1018,6 25
12.07.2018 21:00:00 23,9 12,1 11 6 - - NW 1018,0 25
12.07.2018 20:00:00 24,7 12,5 14 8 - - NW 1017,7 25
12.07.2018 19:00:00 24,2 12,4 7 4 - - NNW 1017,5 25
12.07.2018 18:00:00 24,9 12,1 4 2 - - W 1017,6 25
12.07.2018 17:00:00 24,7 13,0 11 6 - - E 1017,7 20
12.07.2018 16:00:00 23,0 13,0 7 4 - - N 1018,4 20
12.07.2018 15:00:00 22,6 13,1 7 4 - - NNW 1018,5 18
12.07.2018 14:00:00 22,4 13,6 7 4 - - W 1018,8 20
12.07.2018 13:00:00 20,9 13,5 11 6 - - NNW 1019,0 18
12.07.2018 12:00:00 19,7 13,4 14 8 - - NNW 1019,0 18
12.07.2018 11:00:00 18,6 13,4 14 8 - - NNW 1019,0 18
12.07.2018 10:00:00 17,8 13,4 14 8 - - NNW 1018,9 15
12.07.2018 09:00:00 17,2 13,9 11 6 - - NW 1018,5 10
12.07.2018 08:00:00 16,5 13,7 11 6 - - N 1018,0 12
12.07.2018 07:00:00 15,7 14,0 14 8 - - WNW 1017,8 12
12.07.2018 06:00:00 15,7 14,0 7 4 - - WNW 1017,6 12
12.07.2018 05:00:00 16,3 14,3 11 6 - - W 1017,6 15
12.07.2018 04:00:00 16,4 14,1 7 4 - - WNW 1017,5 19
12.07.2018 03:00:00 16,3 14,2 11 6 - - WNW 1017,7 20
12.07.2018 02:00:00 16,2 14,1 11 6 - - WNW 1017,5 21
12.07.2018 01:00:00 16,5 14,3 7 4 - - NW 1017,5 20
12.07.2018 00:00:00 17,5 13,5 11 6 - - NNW 1017,6 26
11.07.2018 23:00:00 18,1 13,2 11 6 - - NW 1017,3 27
11.07.2018 22:00:00 17,4 14,2 14 8 - - ENE 1017,2 15
11.07.2018 21:00:00 17,6 14,1 7 4 - - W 1016,8 15
11.07.2018 20:00:00 17,8 14,3 14 8 - - NNW 1017,0 15
11.07.2018 19:00:00 19,5 12,1 14 8 - - NW 1016,5 15
11.07.2018 18:00:00 19,6 11,4 18 10 - - N 1016,7 10
11.07.2018 17:00:00 21,8 9,0 18 10 - - NW 1016,1 30
11.07.2018 16:00:00 23,0 8,7 22 12 - - NW 1016,2 30
11.07.2018 15:00:00 21,7 7,1 18 10 - - NNW 1016,9 30
11.07.2018 14:00:00 20,9 9,4 14 8 - - NNW 1017,1 30
11.07.2018 13:00:00 20,1 9,1 14 8 - - NNW 1017,6 30
11.07.2018 12:00:00 19,3 10,1 11 6 - - N 1017,9 25
11.07.2018 11:00:00 17,5 10,5 11 6 - - N 1018,2 20
11.07.2018 10:00:00 15,8 10,9 11 6 - - WNW 1018,3 18
11.07.2018 09:00:00 14,1 10,2 7 4 - - N 1018,5 15
11.07.2018 08:00:00 12,3 9,9 7 4 - - WNW 1018,2 20
11.07.2018 07:00:00 11,4 9,4 11 6 - - WNW 1017,9 20
11.07.2018 06:00:00 10,2 8,8 11 6 - - W 1017,5 20
11.07.2018 05:00:00 9,9 8,2 11 6 - - WNW 1017,6 22
11.07.2018 04:00:00 11,7 8,7 7 4 - - NW 1017,2 26
11.07.2018 03:00:00 11,2 8,2 11 6 - - WNW 1017,2 30
11.07.2018 02:00:00 12,1 8,6 11 6 - - NW 1017,2 35
11.07.2018 01:00:00 14,2 8,6 11 6 - - NNW 1017,1 30
11.07.2018 00:00:00 15,8 8,9 11 6 - - NW 1016,7 30
10.07.2018 23:00:00 15,2 12,1 14 8 - - W 1016,4 22
10.07.2018 22:00:00 16,3 13,6 18 10 - - WNW 1016,0 25
10.07.2018 21:00:00 16,0 13,6 29 16 47 25 W 1015,3 30
10.07.2018 20:00:00 16,5 13,9 32 18 - - W 1015,0 30
10.07.2018 19:00:00 15,4 13,7 32 18 - - W 1015,7 30
10.07.2018 18:00:00 16,3 12,2 36 19 50 27 W 1016,0 30

tt = temperature
td = dewpoint
ff = wind speed
fx = gusts
dd = wind direction
ppp = reduced air pressure
vv = visibility

Next stations